Location: Zilina
(0.0000°N, 18.7333°E)
Time: 16:57:32
(UTC+01:00)

Okean 1-7 - Pass Details

Date: 19 February 2019
Orbit: 590 x 620 km, 82.5° (Epoch: 17 March)

Event Time Altitude Azimuth Distance (km) Brightness Sun altitude
Rises 19:19:45 0° 350° (N) 2,812 6.4 -19.8°
Reaches altitude 10° 19:21:58 10° 347° (NNW) 1,911 5.6 -20.4°
Maximum altitude 19:26:08 62° 266° (W) 663 3.4 -21.4°
Drops below altitude 10° 19:30:19 10° 185° (S) 1,917 5.8 -22.4°
Sets 19:32:32 0° 182° (S) 2,821 6.6 -22.9°
